Weather History for Plattsburgh, NY

Change the Weather History Date:

Wednesday, February 5, 2014

  Actual Average Record
Temperature  
Mean Temperature 15 °F 18 °F  
Max Temperature 19 °F 28 °F 53 °F (1991)
Min Temperature 11 °F 8 °F -20 °F (1978)
Degree Days  
Heating Degree Days 50 47  
Month to date heating degree days 212 238  
Since 1 July heating degree days 4758 4614  
Moisture  
Dew Point 13 °F    
Average Humidity 80    
Maximum Humidity 92    
Minimum Humidity 67    
Precipitation  
Precipitation 0.20 in - 0.60 in (2011)
Month to date precipitation 0.21  
Year to date precipitation 0.85  
Sea Level Pressure  
Sea Level Pressure 30.02 in    
Wind  
Wind Speed 10 mph (NNW)    
Max Wind Speed 22 mph    
Max Gust Speed 29 mph    
Visibility 2 miles    
Events Fog , Snow    
T = Trace of Precipitation, MM = Missing Value Source: NWS Daily Summary

Daily Weather History Graph

Daily Weather History Graph

Search for Another Location

Airport:

Trip Planner

Search our weather history database for the weather conditions in past years. The results will help you decide how hot, cold, wet, or windy it might be!

Date:

Astronomy

Feb. 05, 2014 Rise Set
Actual Time 7:08 AM EST 5:08 PM EST
Civil Twilight 6:37 AM EST 5:39 PM EST
Nautical Twilight 6:02 AM EST 6:13 PM EST
Astronomical Twilight 5:28 AM EST 6:47 PM EST
Moon 10:03 AM EST (2/5) No Moon Set
Length of Visible Light 11h 01m
Length of Day
10h 00m
Waxing Crescent, 39% of the Moon is Illuminated
Feb 5
Waxing Crescent
Feb 6
First Quarter
Feb 14
Full
Feb 22
Last Quarter
Mar 1
New

Hourly Weather History & Observations

Time (EST) Temp. Windchill Dew Point Humidity Pressure Visibility Wind Dir Wind Speed Gust Speed Precip Events Conditions
12:53 AM 19.0 °F 13.9 °F 10.9 °F 71% 30.33 in 10.0 mi NNW 3.5 mph - N/A   Overcast
1:53 AM 19.0 °F 13.9 °F 10.0 °F 68% 30.32 in 10.0 mi WNW 3.5 mph - N/A   Overcast
2:42 AM 18.0 °F - 10.0 °F 71% 30.30 in 2.5 mi Calm Calm - 0.00 in Snow Light Snow
2:53 AM 18.0 °F 12.7 °F 12.0 °F 78% 30.30 in 1.5 mi WNW 3.5 mph - 0.00 in Snow Light Snow
3:53 AM 17.1 °F - 14.0 °F 88% 30.27 in 1.0 mi Calm Calm - 0.02 in Snow Light Snow
4:53 AM 17.1 °F 10.0 °F 14.0 °F 88% 30.25 in 1.0 mi West 4.6 mph - 0.02 in Snow Light Snow
5:41 AM 17.1 °F 10.0 °F 15.1 °F 92% 30.22 in 0.8 mi WNW 4.6 mph - 0.03 in Snow Light Snow
5:53 AM 18.0 °F 12.7 °F 15.1 °F 88% 30.22 in 0.8 mi WNW 3.5 mph - 0.03 in Snow Light Snow
5:58 AM 18.0 °F 12.7 °F 15.1 °F 88% 30.20 in 1.0 mi WNW 3.5 mph - 0.01 in Snow Light Snow
6:53 AM 18.0 °F 12.7 °F 15.1 °F 88% 30.21 in 1.0 mi NW 3.5 mph - 0.03 in Snow Light Snow
7:36 AM 18.0 °F 7.7 °F 16.0 °F 92% 30.17 in 0.8 mi North 8.1 mph - 0.02 in Snow Light Snow
7:53 AM 18.0 °F 7.7 °F 16.0 °F 92% 30.17 in 0.5 mi North 8.1 mph - 0.02 in Fog , Snow Light Snow
8:29 AM 18.0 °F 8.7 °F 16.0 °F 92% 30.14 in 0.5 mi North 6.9 mph - 0.02 in Fog , Snow Snow
8:53 AM 18.0 °F 7.7 °F 16.0 °F 92% 30.13 in 0.5 mi North 8.1 mph - 0.03 in Fog , Snow Light Snow
9:22 AM 18.0 °F 9.8 °F 16.0 °F 92% 30.09 in 0.5 mi North 5.8 mph - 0.00 in Fog , Snow Snow
9:44 AM 18.0 °F 7.7 °F 16.0 °F 92% 30.07 in 0.8 mi North 8.1 mph - 0.01 in Snow Light Snow
9:53 AM 18.0 °F 7.7 °F 16.0 °F 92% 30.09 in 1.0 mi North 8.1 mph - 0.01 in Snow Light Snow
10:37 AM 18.0 °F 6.1 °F 16.0 °F 92% 30.04 in 0.8 mi North 10.4 mph - 0.01 in Snow Light Snow
10:51 AM 19.4 °F 8.6 °F 15.8 °F 86% 30.02 in 1.0 mi North 9.2 mph - 0.01 in Snow Light Snow
10:53 AM 19.0 °F 8.2 °F 16.0 °F 88% 30.03 in 1.0 mi North 9.2 mph - 0.01 in Snow Light Snow
11:16 AM 19.0 °F 8.2 °F 16.0 °F 88% 29.99 in 0.5 mi North 9.2 mph - 0.00 in Fog , Snow Snow
11:29 AM 18.0 °F 6.1 °F 16.0 °F 92% 29.98 in 0.2 mi North 10.4 mph - 0.01 in Fog , Snow Heavy Snow
11:51 AM 17.6 °F 4.3 °F 15.8 °F 93% 29.93 in 0.8 mi North 12.7 mph - 0.01 in Snow Light Snow
11:53 AM 18.0 °F 4.8 °F 15.1 °F 88% 29.94 in 0.8 mi North 12.7 mph - 0.01 in Snow Light Snow
12:20 PM 18.0 °F 5.4 °F 15.1 °F 88% 29.91 in 0.5 mi North 11.5 mph - 0.00 in Fog , Snow Snow
12:45 PM 18.0 °F 4.8 °F 15.1 °F 88% 29.88 in 0.8 mi North 12.7 mph - 0.00 in Snow Light Snow
12:53 PM 18.0 °F 3.1 °F 15.1 °F 88% 29.90 in 0.8 mi North 16.1 mph - 0.00 in Snow Light Snow
1:03 PM 18.0 °F 3.1 °F 15.1 °F 88% 29.85 in 0.5 mi North 16.1 mph - 0.00 in Fog , Snow Snow
1:18 PM 18.0 °F 3.1 °F 14.0 °F 84% 29.86 in 0.5 mi North 16.1 mph - 0.00 in Fog , Snow Snow
1:49 PM 17.6 °F 2.7 °F 14.0 °F 86% 29.87 in 0.8 mi NNW 16.1 mph - 0.00 in Snow Light Snow
1:53 PM 17.1 °F 3.0 °F 12.9 °F 84% 29.89 in 0.8 mi NNW 13.8 mph - 0.00 in Snow Light Snow
2:22 PM 17.1 °F 2.0 °F 14.0 °F 88% 29.88 in 0.5 mi North 16.1 mph - 0.01 in Fog , Snow Snow
2:41 PM 17.1 °F 1.5 °F 14.0 °F 88% 29.87 in 0.2 mi North 17.3 mph - 0.01 in Fog , Snow Heavy Snow
2:53 PM 17.1 °F 1.5 °F 14.0 °F 88% 29.87 in 0.2 mi North 17.3 mph - 0.01 in Fog , Snow Heavy Snow
3:16 PM 16.0 °F 1.1 °F 12.9 °F 88% 29.85 in 0.5 mi North 15.0 mph - 0.00 in Fog , Snow Snow
3:36 PM 16.0 °F 1.7 °F 12.9 °F 88% 29.85 in 0.8 mi North 13.8 mph - 0.01 in Snow Light Snow
3:53 PM 16.0 °F 1.7 °F 12.0 °F 84% 29.87 in 0.8 mi North 13.8 mph - 0.01 in Snow Light Snow
4:19 PM 16.0 °F 1.7 °F 12.0 °F 84% 29.84 in 0.5 mi North 13.8 mph - 0.00 in Fog , Snow Light Snow
4:30 PM 16.0 °F 1.1 °F 12.0 °F 84% 29.85 in 0.8 mi NNW 15.0 mph - 0.00 in Snow Light Snow
4:44 PM 16.0 °F 1.7 °F 12.0 °F 84% 29.87 in 0.5 mi NNW 13.8 mph - 0.00 in Fog , Snow Snow
4:53 PM 15.1 °F -1.1 °F 12.0 °F 88% 29.89 in 0.5 mi NNW 17.3 mph - 0.00 in Fog , Snow Light Snow
5:05 PM 15.1 °F -1.1 °F 10.9 °F 84% 29.88 in 0.8 mi NNW 17.3 mph - 0.00 in Snow Light Snow
5:12 PM 15.1 °F -0.1 °F 10.9 °F 84% 29.88 in 1.0 mi NNW 15.0 mph - 0.00 in Snow Light Snow
5:53 PM 14.0 °F -3.0 °F 10.9 °F 88% 29.91 in 1.2 mi North 18.4 mph - 0.00 in Snow Light Snow
6:53 PM 14.0 °F -3.0 °F 10.0 °F 84% 29.94 in 1.8 mi North 18.4 mph - 0.00 in Snow Light Snow
7:01 PM 14.0 °F -2.5 °F 10.0 °F 84% 29.93 in 2.5 mi North 17.3 mph - 0.00 in Snow Light Snow
7:24 PM 14.0 °F -1.4 °F 10.0 °F 84% 29.93 in 3.0 mi NNW 15.0 mph - 0.00 in Snow Light Snow
7:53 PM 14.0 °F -2.0 °F 10.0 °F 84% 29.97 in 2.5 mi NNW 16.1 mph - 0.00 in Snow Light Snow
8:00 PM 14.0 °F -2.0 °F 10.0 °F 84% 29.96 in 2.5 mi NNW 16.1 mph - 0.00 in Snow Light Snow
8:15 PM 14.0 °F -3.0 °F 10.0 °F 84% 29.97 in 3.0 mi NNW 18.4 mph - 0.00 in Snow Light Snow
8:48 PM 14.0 °F -2.0 °F 8.6 °F 79% 29.99 in 5.0 mi North 16.1 mph - 0.00 in Snow Light Snow
8:53 PM 14.0 °F -2.5 °F 9.0 °F 80% 30.01 in 5.0 mi North 17.3 mph - 0.00 in Snow Light Snow
9:53 PM 12.0 °F 1.5 °F 8.1 °F 84% 30.05 in 8.0 mi North 6.9 mph - 0.00 in   Overcast
10:23 PM 12.0 °F 0.5 °F 9.0 °F 88% 30.05 in 5.0 mi North 8.1 mph - 0.00 in Snow Light Snow
10:53 PM 12.0 °F -2.0 °F 7.0 °F 80% 30.09 in 9.0 mi North 11.5 mph - 0.00 in   Overcast
11:16 PM 12.0 °F -3.4 °F 8.1 °F 84% 30.09 in 8.0 mi North 13.8 mph - 0.00 in Snow Light Snow
11:53 PM 12.0 °F -2.0 °F 8.1 °F 84% 30.13 in 6.0 mi NNE 11.5 mph - 0.00 in Snow Light Snow